| time (UTC) | temp F | wind direction | speed MPH | gust MPH | rain 1hr in | rain 24hr in | rain mn in | humidity % | barometer mb |
| 20260502190611 | 50 | 304 | 2.0 | 2.0 | 0.00 | 0.00 | 0.00 | 46 | 1021.2 |
| 20260502190109 | 49 | 319 | 2.0 | 2.0 | 0.00 | 0.00 | 0.00 | 47 | 1021.2 |
| 20260502185603 | 50 | 292 | 5.0 | 7.0 | 0.00 | 0.00 | 0.00 | 46 | 1021.4 |
| 20260502185100 | 50 | 293 | 4.0 | 5.0 | 0.00 | 0.00 | 0.00 | 47 | 1021.3 |
| 20260502184555 | 49 | 301 | 3.0 | 3.0 | 0.00 | 0.00 | 0.00 | 49 | 1021.3 |
| 20260502184046 | 48 | 236 | 4.0 | 9.0 | 0.00 | 0.00 | 0.00 | 51 | 1021.4 |
| 20260502183543 | 47 | 280 | 5.0 | 7.0 | 0.00 | 0.00 | 0.00 | 50 | 1021.5 |
| 20260502183039 | 47 | 262 | 3.0 | 5.0 | 0.00 | 0.00 | 0.00 | 50 | 1021.4 |
| 20260502182534 | 48 | 351 | 2.0 | 2.0 | 0.00 | 0.00 | 0.00 | 50 | 1021.4 |
| 20260502182030 | 48 | 229 | 5.0 | 8.0 | 0.00 | 0.00 | 0.00 | 50 | 1021.5 |
| 20260502181528 | 48 | 308 | 2.0 | 3.0 | 0.00 | 0.00 | 0.00 | 49 | 1021.6 |
| 20260502181027 | 46 | 283 | 3.0 | 3.0 | 0.00 | 0.00 | 0.00 | 51 | 1021.7 |
| 20260502180523 | 47 | 294 | 5.0 | 6.0 | 0.00 | 0.00 | 0.00 | 51 | 1021.6 |
| 20260502170442 | 47 | 318 | 2.0 | 2.0 | 0.00 | 0.00 | 0.00 | 52 | 1021.8 |
| 20260502163925 | 46 | 350 | 1.0 | 1.0 | 0.00 | 0.00 | 0.00 | 51 | 1022.0 |
| 20260502163421 | 45 | 282 | 3.0 | 5.0 | 0.00 | 0.00 | 0.00 | 53 | 1022.2 |
| 20260502162920 | 45 | 249 | 4.0 | 6.0 | 0.00 | 0.00 | 0.00 | 53 | 1022.2 |
| 20260502162416 | 45 | 324 | 1.0 | 1.0 | 0.00 | 0.00 | 0.00 | 52 | 1022.1 |
| 20260502161913 | 46 | 244 | 5.0 | 6.0 | 0.00 | 0.00 | 0.00 | 51 | 1022.5 |
| 20260502161409 | 45 | 329 | 1.0 | 2.0 | 0.00 | 0.00 | 0.00 | 52 | 1022.4 |
| 20260502160907 | 45 | 304 | 2.0 | 2.0 | 0.00 | 0.00 | 0.00 | 52 | 1022.3 |
| 20260502160405 | 45 | 3 | 1.0 | 1.0 | 0.00 | 0.00 | 0.00 | 53 | 1022.3 |
| 20260502152334 | 44 | 21 | 1.0 | 1.0 | 0.00 | 0.00 | 0.00 | 55 | 1022.4 |
| 20260502151832 | 45 | 253 | 6.0 | 10.0 | 0.00 | 0.00 | 0.00 | 54 | 1022.4 |
| 20260502151328 | 46 | 2 | 1.0 | 1.0 | 0.00 | 0.00 | 0.00 | 53 | 1022.3 |
| 20260502150826 | 46 | 16 | 0.0 | 1.0 | 0.00 | 0.00 | 0.00 | 54 | 1022.4 |
| 20260502150322 | 46 | 357 | 2.0 | 2.0 | 0.00 | 0.00 | 0.00 | 54 | 1022.4 |
| 20260502130710 | 41 | 359 | 1.0 | 1.0 | 0.00 | 0.00 | 0.00 | 67 | 1022.8 |
| 20260502130208 | 41 | 18 | 0.0 | 1.0 | 0.00 | 0.00 | 0.00 | 70 | 1022.8 |
| 20260502123654 | 40 | 14 | 1.0 | 2.0 | 0.00 | 0.00 | 0.00 | 82 | 1022.8 |
| 20260502123151 | 40 | 325 | 1.0 | 2.0 | 0.00 | 0.00 | 0.00 | 82 | 1022.9 |
| 20260502122647 | 39 | 56 | 1.0 | 1.0 | 0.00 | 0.00 | 0.00 | 83 | 1022.8 |
| 20260502122144 | 40 | 50 | 1.0 | 1.0 | 0.00 | 0.00 | 0.00 | 84 | 1022.7 |
| 20260502121642 | 38 | 12 | 1.0 | 1.0 | 0.00 | 0.00 | 0.00 | 85 | 1022.8 |
| 20260502121139 | 38 | 14 | 0.0 | 1.0 | 0.00 | 0.00 | 0.00 | 86 | 1022.9 |
| 20260502120635 | 38 | 7 | 1.0 | 1.0 | 0.00 | 0.00 | 0.00 | 85 | 1023.0 |
| 20260502120132 | 37 | 23 | 0.0 | 1.0 | 0.00 | 0.00 | 0.00 | 85 | 1022.9 |
| 20260502115630 | 38 | 348 | 1.0 | 1.0 | 0.00 | 0.00 | 0.00 | 84 | 1022.7 |
| 20260502115126 | 38 | 22 | 1.0 | 1.0 | 0.00 | 0.00 | 0.00 | 86 | 1022.8 |
| 20260502114622 | 37 | 7 | 0.0 | 1.0 | 0.00 | 0.00 | 0.00 | 88 | 1022.8 |
| 20260502114120 | 37 | 344 | 1.0 | 1.0 | 0.00 | 0.00 | 0.00 | 89 | 1022.7 |
| 20260502113617 | 35 | 39 | 0.0 | 0.0 | 0.00 | 0.00 | 0.00 | 91 | 1022.7 |
| 20260502113116 | 35 | 33 | 0.0 | 1.0 | 0.00 | 0.00 | 0.00 | 92 | 1022.7 |
| 20260502112613 | 33 | 36 | 0.0 | 0.0 | 0.00 | 0.00 | 0.00 | 95 | 1022.7 |
| 20260502112110 | 33 | 36 | 0.0 | 0.0 | 0.00 | 0.00 | 0.00 | 95 | 1022.4 |
| 20260502111608 | 33 | 36 | 0.0 | 0.0 | 0.00 | 0.00 | 0.00 | 97 | 1022.5 |
| 20260502111105 | 31 | 35 | 0.0 | 0.0 | 0.00 | 0.00 | 0.00 | 97 | 1022.5 |
| 20260502110602 | 29 | 35 | 0.0 | 0.0 | 0.00 | 0.00 | 0.00 | 97 | 1022.6 |
| 20260502110100 | 29 | 35 | 0.0 | 0.0 | 0.00 | 0.00 | 0.00 | 97 | 1022.5 |
| 20260502105557 | 29 | 35 | 0.0 | 0.0 | 0.00 | 0.00 | 0.00 | 97 | 1022.5 |
| 20260502105054 | 28 | 35 | 0.0 | 0.0 | 0.00 | 0.00 | 0.00 | 97 | 1022.5 |
| 20260502104551 | 28 | 35 | 0.0 | 0.0 | 0.00 | 0.00 | 0.00 | 96 | 1022.5 |
| 20260502104049 | 29 | 35 | 0.0 | 0.0 | 0.00 | 0.00 | 0.00 | 96 | 1022.7 |
| 20260502103546 | 29 | 35 | 0.0 | 0.0 | 0.00 | 0.00 | 0.00 | 96 | 1022.4 |
| 20260502103044 | 29 | 35 | 0.0 | 0.0 | 0.00 | 0.00 | 0.00 | 96 | 1022.6 |
| 20260502102540 | 29 | 35 | 0.0 | 0.0 | 0.00 | 0.00 | 0.00 | 96 | 1022.3 |
| 20260502102037 | 28 | 35 | 0.0 | 0.0 | 0.00 | 0.00 | 0.00 | 96 | 1022.3 |
| 20260502101535 | 29 | 35 | 0.0 | 0.0 | 0.00 | 0.00 | 0.00 | 96 | 1022.4 |
| 20260502101033 | 29 | 35 | 0.0 | 0.0 | 0.00 | 0.00 | 0.00 | 96 | 1022.1 |
| 20260502100532 | 29 | 35 | 0.0 | 0.0 | 0.00 | 0.00 | 0.00 | 95 | 1022.4 |
| 20260502091506 | 30 | 34 | 0.0 | 0.0 | 0.00 | 0.00 | 0.00 | 93 | 1022.2 |
| 20260502091004 | 30 | 34 | 0.0 | 0.0 | 0.00 | 0.00 | 0.00 | 93 | 1022.2 |
| 20260502090500 | 30 | 34 | 0.0 | 0.0 | 0.00 | 0.00 | 0.00 | 92 | 1022.2 |
| 20260502071355 | 35 | 27 | 0.0 | 0.0 | 0.00 | 0.00 | 0.00 | 82 | 1021.8 |
| 20260502070853 | 35 | 28 | 0.0 | 0.0 | 0.00 | 0.00 | 0.00 | 83 | 1021.8 |
| 20260502070350 | 36 | 25 | 0.0 | 0.0 | 0.00 | 0.00 | 0.00 | 82 | 1021.9 |
| 20260502065849 | 36 | 21 | 0.0 | 0.0 | 0.00 | 0.00 | 0.00 | 82 | 1021.9 |
| 20260502065347 | 36 | 25 | 0.0 | 0.0 | 0.00 | 0.00 | 0.00 | 82 | 1021.8 |
| 20260502064844 | 36 | 24 | 0.0 | 1.0 | 0.00 | 0.00 | 0.00 | 82 | 1021.9 |
| 20260502064342 | 36 | 27 | 0.0 | 0.0 | 0.00 | 0.00 | 0.00 | 82 | 1022.0 |
| 20260502063839 | 36 | 28 | 0.0 | 0.0 | 0.00 | 0.00 | 0.00 | 82 | 1022.0 |
| 20260502063337 | 36 | 28 | 0.0 | 0.0 | 0.00 | 0.00 | 0.00 | 82 | 1022.0 |
| 20260502062834 | 36 | 26 | 0.0 | 0.0 | 0.00 | 0.00 | 0.00 | 82 | 1022.2 |
| 20260502062331 | 36 | 26 | 0.0 | 0.0 | 0.00 | 0.00 | 0.00 | 82 | 1022.2 |
| 20260502061831 | 36 | 26 | 0.0 | 0.0 | 0.00 | 0.00 | 0.00 | 81 | 1022.2 |
| 20260502061328 | 36 | 27 | 0.0 | 0.0 | 0.00 | 0.00 | 0.00 | 81 | 1022.0 |
| 20260502060823 | 36 | 26 | 0.0 | 0.0 | 0.00 | 0.00 | 0.00 | 81 | 1022.1 |
| 20260502060318 | 36 | 27 | 0.0 | 0.0 | 0.00 | 0.00 | 0.00 | 81 | 1022.2 |
| 20260502055816 | 36 | 27 | 0.0 | 0.0 | 0.00 | 0.00 | 0.00 | 81 | 1022.1 |
| 20260502055314 | 36 | 27 | 0.0 | 0.0 | 0.00 | 0.00 | 0.00 | 81 | 1022.2 |
| 20260502054814 | 36 | 27 | 0.0 | 0.0 | 0.00 | 0.00 | 0.00 | 82 | 1022.2 |
| 20260502054311 | 36 | 27 | 0.0 | 0.0 | 0.00 | 0.00 | 0.00 | 81 | 1022.3 |
| 20260502053808 | 36 | 27 | 0.0 | 0.0 | 0.00 | 0.00 | 0.00 | 81 | 1022.2 |
| 20260502053305 | 36 | 27 | 0.0 | 0.0 | 0.00 | 0.00 | 0.00 | 82 | 1022.1 |
| 20260502052803 | 36 | 27 | 0.0 | 0.0 | 0.00 | 0.00 | 0.00 | 81 | 1022.1 |
| 20260502052301 | 36 | 27 | 0.0 | 0.0 | 0.00 | 0.00 | 0.00 | 81 | 1022.2 |
| 20260502051758 | 36 | 27 | 0.0 | 0.0 | 0.00 | 0.00 | 0.00 | 81 | 1022.1 |
| 20260502051257 | 36 | 27 | 0.0 | 0.0 | 0.00 | 0.00 | 0.00 | 80 | 1022.1 |
| 20260502050752 | 36 | 26 | 0.0 | 0.0 | 0.00 | 0.00 | 0.00 | 79 | 1022.0 |
| 20260502050248 | 36 | 28 | 0.0 | 0.0 | 0.00 | 0.00 | 0.00 | 78 | 1021.9 |
| 20260502045746 | 36 | 29 | 0.0 | 0.0 | 0.00 | 0.00 | 0.00 | 77 | 1021.8 |
| 20260502045243 | 37 | 27 | 0.0 | 0.0 | 0.00 | 0.00 | 0.00 | 77 | 1021.7 |
| 20260502044739 | 37 | 25 | 0.0 | 0.0 | 0.00 | 0.00 | 0.00 | 77 | 1021.7 |
| 20260502044236 | 37 | 27 | 0.0 | 0.0 | 0.00 | 0.00 | 0.00 | 76 | 1021.7 |
| 20260502043733 | 37 | 21 | 0.0 | 1.0 | 0.00 | 0.00 | 0.00 | 76 | 1021.8 |
| 20260502043231 | 37 | 9 | 1.0 | 1.0 | 0.00 | 0.00 | 0.00 | 76 | 1021.7 |
| 20260502042730 | 37 | 23 | 0.0 | 1.0 | 0.00 | 0.00 | 0.00 | 76 | 1021.9 |
| 20260502042228 | 37 | 358 | 1.0 | 1.0 | 0.00 | 0.00 | 0.00 | 75 | 1021.7 |
| 20260502041725 | 37 | 25 | 0.0 | 1.0 | 0.00 | 0.00 | 0.00 | 75 | 1021.7 |
| 20260502041223 | 37 | 22 | 1.0 | 1.0 | 0.00 | 0.00 | 0.00 | 75 | 1021.7 |
| 20260502040719 | 37 | 27 | 0.0 | 1.0 | 0.00 | 0.00 | 0.00 | 75 | 1021.8 |
| 20260502040216 | 37 | 26 | 0.0 | 0.0 | 0.00 | 0.00 | 0.00 | 74 | 1021.9 |
| 20260502035712 | 37 | 30 | 0.0 | 0.0 | 0.00 | 0.00 | 0.00 | 74 | 1021.9 |
| 20260502035209 | 37 | 22 | 0.0 | 1.0 | 0.00 | 0.00 | 0.00 | 74 | 1021.7 |
| 20260502034707 | 38 | 28 | 0.0 | 0.0 | 0.00 | 0.00 | 0.00 | 74 | 1021.8 |
| 20260502034205 | 38 | 1 | 1.0 | 1.0 | 0.00 | 0.00 | 0.00 | 73 | 1021.5 |
| 20260502033703 | 38 | 6 | 1.0 | 2.0 | 0.00 | 0.00 | 0.00 | 72 | 1021.8 |
| 20260502033200 | 38 | 348 | 1.0 | 1.0 | 0.00 | 0.00 | 0.00 | 72 | 1021.9 |
| 20260502032656 | 38 | 18 | 0.0 | 1.0 | 0.00 | 0.00 | 0.00 | 72 | 1021.7 |
| 20260502032152 | 38 | 359 | 1.0 | 1.0 | 0.00 | 0.00 | 0.00 | 72 | 1021.8 |
| 20260502031650 | 38 | 1 | 1.0 | 1.0 | 0.00 | 0.00 | 0.00 | 71 | 1021.7 |
| 20260502031148 | 38 | 6 | 1.0 | 1.0 | 0.00 | 0.00 | 0.00 | 71 | 1021.6 |
| 20260502030647 | 38 | 15 | 1.0 | 1.0 | 0.00 | 0.00 | 0.00 | 70 | 1021.7 |
| 20260502030144 | 38 | 332 | 1.0 | 2.0 | 0.00 | 0.00 | 0.00 | 70 | 1021.8 |
| 20260502025641 | 38 | 333 | 1.0 | 2.0 | 0.00 | 0.00 | 0.00 | 70 | 1021.7 |
| 20260502025139 | 38 | 322 | 1.0 | 1.0 | 0.00 | 0.00 | 0.00 | 70 | 1021.8 |
| 20260502024637 | 38 | 17 | 0.0 | 0.0 | 0.00 | 0.00 | 0.00 | 69 | 1021.7 |
| 20260502024135 | 38 | 28 | 0.0 | 0.0 | 0.00 | 0.00 | 0.00 | 69 | 1021.8 |
| 20260502023633 | 38 | 20 | 1.0 | 1.0 | 0.00 | 0.00 | 0.00 | 69 | 1021.6 |
| 20260502023130 | 38 | 20 | 0.0 | 0.0 | 0.00 | 0.00 | 0.00 | 68 | 1021.8 |
| 20260502022626 | 38 | 341 | 1.0 | 1.0 | 0.00 | 0.00 | 0.00 | 67 | 1021.5 |
| 20260502022124 | 38 | 15 | 1.0 | 1.0 | 0.00 | 0.00 | 0.00 | 67 | 1021.5 |
| 20260502021621 | 38 | 315 | 1.0 | 1.0 | 0.00 | 0.00 | 0.00 | 66 | 1021.6 |
| 20260502021118 | 38 | 0 | 1.0 | 1.0 | 0.00 | 0.00 | 0.00 | 65 | 1021.5 |
| 20260502020615 | 39 | 310 | 2.0 | 2.0 | 0.00 | 0.00 | 0.00 | 65 | 1021.3 |
| 20260502020112 | 39 | 20 | 0.0 | 1.0 | 0.00 | 0.00 | 0.00 | 64 | 1021.6 |
| 20260502015610 | 39 | 1 | 1.0 | 2.0 | 0.00 | 0.00 | 0.00 | 63 | 1021.5 |
| 20260502015105 | 39 | 281 | 2.0 | 2.0 | 0.00 | 0.00 | 0.00 | 63 | 1021.4 |
| 20260502014557 | 39 | 331 | 3.0 | 5.0 | 0.00 | 0.00 | 0.00 | 62 | 1021.2 |
| 20260502014054 | 39 | 295 | 4.0 | 5.0 | 0.00 | 0.00 | 0.00 | 62 | 1021.2 |
| 20260502013549 | 39 | 353 | 2.0 | 2.0 | 0.00 | 0.00 | 0.00 | 61 | 1021.2 |
| 20260502013046 | 39 | 271 | 3.0 | 3.0 | 0.00 | 0.00 | 0.00 | 59 | 1021.2 |
| 20260502012544 | 39 | 308 | 4.0 | 5.0 | 0.00 | 0.00 | 0.00 | 57 | 1021.1 |
| 20260502012042 | 39 | 346 | 1.0 | 2.0 | 0.00 | 0.00 | 0.00 | 57 | 1021.1 |
| 20260502011538 | 40 | 312 | 0.0 | 1.0 | 0.00 | 0.00 | 0.00 | 56 | 1021.0 |
| 20260502011034 | 40 | 341 | 1.0 | 1.0 | 0.00 | 0.00 | 0.00 | 55 | 1021.0 |
| 20260502010532 | 40 | 350 | 1.0 | 1.0 | 0.00 | 0.00 | 0.00 | 55 | 1021.0 |
| 20260502010028 | 40 | 27 | 0.0 | 1.0 | 0.00 | 0.00 | 0.00 | 56 | 1020.9 |
| 20260502005526 | 40 | 286 | 2.0 | 2.0 | 0.00 | 0.00 | 0.00 | 55 | 1020.8 |
| 20260502005023 | 40 | 330 | 1.0 | 2.0 | 0.00 | 0.00 | 0.00 | 57 | 1020.9 |
| 20260502004519 | 40 | 5 | 1.0 | 1.0 | 0.00 | 0.00 | 0.00 | 58 | 1020.7 |
| 20260502004016 | 40 | 12 | 1.0 | 1.0 | 0.00 | 0.00 | 0.00 | 57 | 1020.8 |
| 20260502003514 | 41 | 352 | 2.0 | 2.0 | 0.00 | 0.00 | 0.00 | 56 | 1020.8 |
| 20260502003010 | 41 | 0 | 1.0 | 1.0 | 0.00 | 0.00 | 0.00 | 57 | 1020.8 |
| 20260502002507 | 41 | 314 | 2.0 | 2.0 | 0.00 | 0.00 | 0.00 | 56 | 1020.7 |
| 20260502002004 | 41 | 335 | 1.0 | 1.0 | 0.00 | 0.00 | 0.00 | 56 | 1020.7 |
| 20260502001502 | 41 | 344 | 2.0 | 2.0 | 0.00 | 0.00 | 0.00 | 56 | 1020.5 |
| 20260502000959 | 42 | 288 | 3.0 | 3.0 | 0.00 | 0.00 | 0.00 | 55 | 1020.4 |
| 20260502000458 | 42 | 354 | 1.0 | 1.0 | 0.00 | 0.00 | 0.00 | 56 | 1020.3 |
| 20260501235953 | 42 | 316 | 2.0 | 2.0 | 0.00 | 0.00 | 0.00 | 55 | 1020.3 |
| 20260501235449 | 42 | 304 | 3.0 | 3.0 | 0.00 | 0.00 | 0.00 | 53 | 1020.3 |
| 20260501234944 | 43 | 316 | 2.0 | 2.0 | 0.00 | 0.00 | 0.00 | 52 | 1020.3 |
| 20260501234441 | 43 | 282 | 4.0 | 5.0 | 0.00 | 0.00 | 0.00 | 51 | 1019.9 |
| 20260501233940 | 44 | 17 | 2.0 | 2.0 | 0.00 | 0.00 | 0.00 | 51 | 1020.0 |
| 20260501233438 | 44 | 350 | 1.0 | 1.0 | 0.00 | 0.00 | 0.00 | 56 | 1020.1 |
| 20260501232933 | 44 | 25 | 0.0 | 1.0 | 0.00 | 0.00 | 0.00 | 55 | 1019.9 |
| 20260501232430 | 44 | 352 | 1.0 | 1.0 | 0.00 | 0.00 | 0.00 | 54 | 1019.9 |
| 20260501231927 | 44 | 25 | 1.0 | 1.0 | 0.00 | 0.00 | 0.00 | 53 | 1019.8 |
| 20260501231426 | 44 | 330 | 2.0 | 2.0 | 0.00 | 0.00 | 0.00 | 53 | 1019.9 |
| 20260501230923 | 44 | 22 | 1.0 | 1.0 | 0.00 | 0.00 | 0.00 | 52 | 1019.7 |
| 20260501230422 | 44 | 356 | 1.0 | 1.0 | 0.00 | 0.00 | 0.00 | 51 | 1019.8 |
| 20260501225919 | 44 | 332 | 2.0 | 2.0 | 0.00 | 0.00 | 0.00 | 53 | 1019.7 |
| 20260501225417 | 44 | 293 | 1.0 | 2.0 | 0.00 | 0.00 | 0.00 | 53 | 1019.7 |
| 20260501224912 | 44 | 297 | 3.0 | 3.0 | 0.00 | 0.00 | 0.00 | 51 | 1019.8 |
| 20260501224410 | 44 | 317 | 2.0 | 2.0 | 0.00 | 0.00 | 0.00 | 51 | 1019.5 |
| 20260501223907 | 45 | 159 | 1.0 | 2.0 | 0.00 | 0.00 | 0.00 | 51 | 1019.7 |
| 20260501223403 | 45 | 312 | 2.0 | 2.0 | 0.00 | 0.00 | 0.00 | 50 | 1019.7 |
| 20260501222859 | 45 | 4 | 1.0 | 2.0 | 0.00 | 0.00 | 0.00 | 50 | 1019.8 |
| 20260501222356 | 45 | 7 | 1.0 | 2.0 | 0.00 | 0.00 | 0.00 | 51 | 1019.6 |
| 20260501221852 | 45 | 24 | 1.0 | 1.0 | 0.00 | 0.00 | 0.00 | 53 | 1019.4 |
| 20260501221350 | 45 | 26 | 0.0 | 0.0 | 0.00 | 0.00 | 0.00 | 52 | 1019.6 |
| 20260501220848 | 44 | 337 | 2.0 | 2.0 | 0.00 | 0.00 | 0.00 | 51 | 1019.6 |
| 20260501220345 | 45 | 282 | 5.0 | 6.0 | 0.00 | 0.00 | 0.00 | 50 | 1019.6 |
| 20260501215841 | 45 | 327 | 2.0 | 2.0 | 0.00 | 0.00 | 0.00 | 52 | 1019.7 |
| 20260501215337 | 45 | 300 | 2.0 | 2.0 | 0.00 | 0.00 | 0.00 | 51 | 1019.7 |
| 20260501214833 | 45 | 301 | 4.0 | 7.0 | 0.00 | 0.00 | 0.00 | 51 | 1019.6 |
| 20260501214328 | 45 | 335 | 2.0 | 2.0 | 0.00 | 0.00 | 0.00 | 51 | 1019.5 |
| 20260501213825 | 45 | 279 | 2.0 | 2.0 | 0.00 | 0.00 | 0.00 | 53 | 1019.6 |
| 20260501213321 | 45 | 306 | 3.0 | 3.0 | 0.00 | 0.00 | 0.00 | 53 | 1019.6 |
| 20260501212817 | 45 | 277 | 2.0 | 3.0 | 0.00 | 0.00 | 0.00 | 53 | 1019.5 |
| 20260501212314 | 45 | 323 | 2.0 | 2.0 | 0.00 | 0.00 | 0.00 | 53 | 1019.4 |
| 20260501211811 | 45 | 329 | 3.0 | 3.0 | 0.00 | 0.00 | 0.00 | 53 | 1019.3 |
| 20260501211308 | 46 | 295 | 3.0 | 3.0 | 0.00 | 0.00 | 0.00 | 52 | 1019.4 |
| 20260501210805 | 45 | 5 | 1.0 | 1.0 | 0.00 | 0.00 | 0.00 | 51 | 1019.3 |
| 20260501210302 | 46 | 314 | 3.0 | 3.0 | 0.00 | 0.00 | 0.00 | 49 | 1019.2 |
| 20260501205758 | 45 | 210 | 2.0 | 2.0 | 0.00 | 0.00 | 0.00 | 50 | 1019.2 |
| 20260501205255 | 45 | 7 | 2.0 | 2.0 | 0.00 | 0.00 | 0.00 | 50 | 1019.2 |
| 20260501204752 | 45 | 262 | 5.0 | 6.0 | 0.00 | 0.00 | 0.00 | 49 | 1019.3 |
| 20260501204249 | 46 | 298 | 2.0 | 2.0 | 0.00 | 0.00 | 0.00 | 50 | 1019.3 |
| 20260501203745 | 46 | 280 | 2.0 | 2.0 | 0.00 | 0.00 | 0.00 | 52 | 1019.4 |
| 20260501203243 | 46 | 264 | 2.0 | 3.0 | 0.00 | 0.00 | 0.00 | 52 | 1019.3 |
| 20260501202740 | 46 | 276 | 3.0 | 3.0 | 0.00 | 0.00 | 0.00 | 52 | 1019.4 |
| 20260501202236 | 46 | 303 | 3.0 | 5.0 | 0.00 | 0.00 | 0.00 | 53 | 1019.3 |
| 20260501201733 | 45 | 202 | 2.0 | 3.0 | 0.00 | 0.00 | 0.00 | 54 | 1019.3 |
| 20260501201230 | 45 | 8 | 1.0 | 1.0 | 0.00 | 0.00 | 0.00 | 55 | 1019.4 |
| 20260501200727 | 45 | 319 | 1.0 | 1.0 | 0.00 | 0.00 | 0.00 | 56 | 1019.4 |
| 20260501200224 | 45 | 14 | 1.0 | 1.0 | 0.00 | 0.00 | 0.00 | 59 | 1019.4 |
| 20260501195721 | 45 | 15 | 1.0 | 2.0 | 0.00 | 0.00 | 0.00 | 57 | 1019.4 |
| 20260501195217 | 44 | 345 | 1.0 | 2.0 | 0.00 | 0.00 | 0.00 | 57 | 1019.5 |
| 20260501194713 | 44 | 293 | 3.0 | 5.0 | 0.00 | 0.00 | 0.00 | 57 | 1019.5 |
| 20260501194209 | 45 | 331 | 1.0 | 2.0 | 0.00 | 0.00 | 0.00 | 58 | 1019.3 |
| 20260501193706 | 44 | 329 | 1.0 | 2.0 | 0.00 | 0.00 | 0.00 | 58 | 1019.4 |
| 20260501193204 | 44 | 335 | 1.0 | 2.0 | 0.00 | 0.00 | 0.00 | 59 | 1019.3 |
| 20260501192701 | 44 | 21 | 1.0 | 1.0 | 0.00 | 0.00 | 0.00 | 59 | 1019.2 |
| 20260501192159 | 44 | 300 | 2.0 | 2.0 | 0.00 | 0.00 | 0.00 | 59 | 1019.2 |
| 20260501191656 | 44 | 38 | 0.0 | 0.0 | 0.00 | 0.00 | 0.00 | 59 | 1019.4 |
| 20260501191153 | 44 | 244 | 3.0 | 3.0 | 0.00 | 0.00 | 0.00 | 58 | 1019.3 |